GEFSMA_con_prob3kmehi_270.txt.gz
EHI
0 0 0 0 0 0 0 0 0 0 0 0 0 0 0 0 0 0 0 0 2 5 5 4 5 5 3 1 0 0 0 0 0 0 0 0 0 0 0 0 0 0 0
0 0 0 0 0 0 0 0 0 0 0 0 0 0 0 0 0 0 0 0 1 4 5 4 5 5 3 1 1 0 0 0 0 0 0 0 0 0 0 0 0 0 0
0 0 0 0 0 0 0 0 0 0 0 0 0 0 0 0 0 0 0 0 1 2 3 3 4 4 3 2 1 0 0 0 0 0 0 0 0 0 0 0 0 0 0
0 0 0 0 0 0 0 0 0 0 0 0 0 0 0 0 0 0 0 0 0 1 1 2 2 3 3 2 1 0 0 0 0 1 1 0 0 0 0 0 0 0 0
0 0 0 0 0 0 0 0 0 0 0 1 0 0 0 0 0 0 0 0 0 0 0 0 1 1 2 1 0 0 0 0 0 2 2 1 0 0 0 0 0 0 0
0 0 0 0 0 0 0 0 0 0 0 0 0 0 0 0 0 0 0 0 0 0 0 0 0 0 0 0 0 0 0 0 0 2 3 3 1 0 0 0 0 0 0
0 0 0 0 0 0 0 0 0 0 0 0 0 0 0 0 0 0 0 0 0 0 0 0 0 0 0 0 0 0 0 0 0 1 3 4 2 0 0 0 0 0 0
0 0 0 0 0 0 0 0 0 0 0 0 0 0 0 0 0 0 0 0 0 0 0 0 0 0 0 0 0 0 0 0 0 0 2 3 2 0 0 0 0 0 0
0 0 0 0 0 0 0 0 0 0 0 0 0 0 0 0 0 0 0 0 0 0 0 0 0 0 0 0 0 0 0 0 0 0 1 2 1 0 0 0 0 0 0
0 0 0 0 0 0 0 0 0 0 0 0 0 0 0 0 0 0 0 0 0 0 0 0 0 0 0 0 0 0 0 0 0 0 1 1 0 0 0 0 0 0 0
0 0 0 0 0 0 0 0 0 0 0 0 0 0 0 0 0 0 0 0 0 0 0 0 0 0 0 0 0 0 0 0 0 0 0 0 1 1 1 1 1 0 0
0 0 0 0 0 0 0 0 0 0 0 0 0 0 0 0 0 0 0 0 0 0 0 0 0 0 0 0 0 0 0 0 0 0 0 0 1 2 2 2 1 0 0
0 0 0 0 0 0 0 0 0 0 0 0 0 0 0 0 0 0 0 0 0 0 0 0 0 0 0 0 0 0 0 0 0 0 0 0 1 2 2 1 1 0 0
0 0 0 0 0 0 0 1 1 1 1 2 1 1 0 0 0 0 0 0 0 0 0 0 0 0 0 0 0 0 0 0 0 0 0 0 0 1 1 0 0 0 0
0 0 0 0 0 0 0 1 2 2 3 3 3 2 1 0 0 0 0 0 0 0 0 0 0 0 0 0 0 0 0 0 0 0 0 0 0 0 0 0 0 0 0
1 1 1 1 1 1 1 2 3 3 3 3 3 2 1 0 0 0 0 0 0 0 0 0 0 0 0 0 0 0 0 0 0 0 0 0 0 0 0 0 0 0 0
2 2 2 2 2 2 2 3 3 3 3 3 3 3 1 0 0 0 0 0 0 0 0 0 0 0 0 0 0 0 0 0 0 0 0 0 0 0 0 0 0 0 0
4 4 4 4 4 4 3 3 3 3 3 3 3 3 2 1 0 0 0 0 0 0 0 0 0 0 0 0 0 0 0 0 0 0 0 0 0 0 0 0 0 0 0
6 5 6 6 6 5 4 4 4 4 3 3 3 3 3 3 2 1 1 1 0 0 0 0 0 0 0 0 0 0 0 0 0 0 0 0 0 0 0 0 0 0 0
6 5 6 7 8 7 5 5 6 6 5 4 4 5 5 5 5 4 3 2 1 0 0 0 0 0 0 0 0 0 0 0 0 0 0 0 0 0 0 0 0 0 0
5 4 4 5 6 6 6 6 7 8 7 7 7 9 10 8 6 4 3 3 2 2 1 1 1 1 1 0 0 0 0 0 0 0 0 0 0 0 0 0 0 0 0
6 5 5 5 5 5 5 5 6 7 8 9 9 10 11 10 6 4 3 3 3 4 4 3 3 2 1 0 0 0 0 0 0 0 0 0 0 0 0 0 0 0 0
7 7 7 7 6 5 4 4 3 4 6 7 6 7 9 9 6 4 3 2 3 4 4 5 4 3 1 0 0 0 0 0 0 0 0 0 0 0 0 0 0 0 0
7 8 8 8 7 5 3 2 2 2 3 4 4 4 7 7 5 3 3 3 3 3 3 3 3 2 1 0 0 0 0 0 0 0 0 0 0 0 0 0 0 0 0
8 7 7 7 6 4 2 1 1 2 3 3 3 4 5 5 3 2 3 3 3 3 3 2 1 1 0 0 0 0 0 0 0 0 0 0 0 0 0 0 0 0 0
8 6 5 6 6 4 1 0 1 2 3 4 4 3 4 3 2 1 2 3 3 3 3 2 1 0 0 0 0 0 0 0 0 0 0 0 0 0 0 0 0 0 0

GEFSMA_con_prob3kmehi_276.txt.gz
EHI
0 0 0 0 0 0 0 0 1 0 0 0 0 0 1 2 2 2 2 1 2 3 2 2 3 3 2 1 1 0 0 0 0 0 0 0 0 0 0 0 0 0 0
0 0 0 0 0 0 1 1 1 0 0 0 0 0 0 1 1 1 1 1 1 2 2 1 2 3 2 2 2 1 0 0 0 0 0 0 0 0 0 0 0 0 0
0 0 0 0 0 1 1 1 1 0 0 0 0 0 0 0 0 0 0 0 0 1 1 1 1 2 1 1 2 1 0 0 0 0 0 0 0 0 0 0 0 0 0
0 0 0 0 1 2 1 1 0 0 0 0 0 0 0 0 0 0 0 0 0 0 0 0 0 1 1 1 1 1 0 0 0 0 0 0 0 0 0 0 0 0 0
0 0 0 1 2 2 1 0 0 0 0 0 0 0 0 0 0 1 1 0 1 1 1 1 1 1 2 2 1 0 0 0 0 0 0 0 0 0 0 0 0 0 0
0 0 1 2 2 1 0 0 0 0 0 0 0 0 0 0 0 1 1 1 1 2 2 2 1 1 1 1 1 0 0 0 0 0 0 1 0 0 0 0 0 0 0
0 0 1 2 2 1 0 0 1 1 1 0 0 0 1 1 1 1 1 0 1 1 2 2 2 1 0 0 0 0 0 0 0 0 0 0 0 0 0 0 0 0 0
0 0 0 1 2 2 1 0 1 1 1 0 0 0 2 2 2 1 1 0 1 2 2 1 1 1 0 0 0 0 0 0 0 0 0 0 0 0 0 0 0 0 0
0 0 0 1 2 2 2 1 0 0 0 0 0 0 1 1 1 2 2 1 1 2 1 0 0 0 0 0 0 0 0 0 0 0 1 0 0 0 0 0 0 0 0
0 0 0 0 1 1 1 1 0 0 0 0 0 0 0 0 0 1 2 2 2 2 1 1 0 0 0 0 0 0 0 0 0 1 2 1 0 0 0 0 0 0 0
1 0 0 0 0 0 1 1 1 1 0 0 0 0 0 0 0 0 1 1 2 3 2 1 0 0 0 0 1 0 0 0 0 0 1 0 0 0 1 0 0 0 0
2 1 1 1 1 0 0 1 2 2 1 0 1 1 1 0 0 0 0 0 1 2 2 1 0 0 0 0 0 0 0 0 0 0 0 0 0 0 0 0 0 0 0
3 3 3 3 2 1 1 1 1 1 1 1 2 3 3 2 1 1 1 0 1 3 3 2 1 0 0 0 0 0 1 0 0 0 0 0 0 0 0 0 0 0 0
3 3 4 4 3 2 2 2 2 2 2 2 3 5 5 5 5 4 3 2 2 3 4 4 3 1 0 0 0 0 0 0 0 0 0 0 0 0 0 0 0 0 0
2 3 3 4 3 3 3 3 3 4 6 6 6 8 8 9 9 8 7 6 5 4 5 6 6 4 2 2 1 0 0 0 0 0 0 0 0 0 0 0 0 0 0
4 4 3 3 3 3 3 4 5 7 9 10 11 12 13 13 12 11 10 10 9 8 7 8 8 6 5 4 3 2 1 0 0 0 0 0 0 0 0 0 0 0 0
5 5 4 3 3 3 5 7 8 10 12 14 15 16 17 17 16 15 14 13 12 11 10 9 10 8 7 5 4 4 2 1 0 0 0 0 0 0 0 0 0 0 0
6 4 4 4 4 5 7 11 13 14 15 16 16 17 18 19 18 18 17 16 14 13 11 10 10 9 7 5 4 4 3 2 1 1 0 0 0 0 0 0 0 0 0
8 7 6 6 7 7 10 14 17 18 17 15 15 16 17 18 19 19 19 18 16 15 14 12 10 8 7 5 4 3 4 4 3 2 0 0 0 0 0 0 0 0 0
14 12 10 11 11 10 12 16 19 20 19 16 14 14 15 15 16 17 17 17 16 17 17 14 11 8 6 5 4 3 4 5 5 3 1 0 0 0 0 0 0 0 0
17 15 13 14 14 13 13 15 18 20 20 19 17 14 13 12 11 10 11 11 13 16 17 15 12 9 7 6 4 4 4 5 5 4 1 0 0 0 0 0 0 0 0
16 14 13 13 13 13 12 11 13 16 18 18 16 14 12 11 8 7 5 5 7 11 13 13 12 9 8 7 6 5 5 5 5 4 2 1 0 0 0 0 0 0 0
17 17 15 14 15 14 10 7 8 12 15 15 14 13 12 11 10 9 6 4 5 6 7 9 10 9 8 7 6 5 6 6 5 4 3 2 1 0 0 0 0 0 0
23 23 23 21 20 16 10 5 5 9 12 13 13 13 13 11 10 10 9 8 7 6 5 6 7 7 6 6 6 5 5 5 5 4 3 3 2 1 0 0 0 0 0
31 29 27 26 24 18 10 3 4 10 15 16 16 15 13 11 9 7 8 9 8 7 4 3 3 4 4 4 4 4 4 4 4 3 3 3 3 2 1 1 0 0 0
36 31 26 26 25 20 11 3 4 12 18 20 20 17 13 11 7 4 5 7 7 6 4 1 1 2 3 3 2 3 3 3 3 3 3 3 3 3 2 2 1 0 0

GEFSMA_con_prob3kmehi_282.txt.gz
EHI
0 1 1 1 0 1 4 7 7 5 4 3 2 2 1 1 4 5 5 7 12 15 15 13 11 7 5 3 1 2 4 4 3 1 1 0 0 0 0 0 0 0 0
0 0 1 1 0 1 3 5 5 4 3 3 2 2 2 2 3 4 4 6 11 14 14 12 9 7 5 4 2 3 4 4 3 2 2 1 1 0 0 0 0 0 1
1 1 1 1 2 3 5 7 6 4 3 2 3 3 5 4 3 3 4 6 8 11 11 8 5 5 4 4 4 5 5 5 4 3 3 3 2 1 1 1 1 1 2
4 3 3 3 3 5 8 9 7 5 4 4 5 6 6 6 5 4 5 7 9 9 8 5 4 5 5 5 6 6 6 5 4 3 3 3 3 3 2 3 3 2 2
5 6 5 6 5 5 6 6 6 6 6 5 6 8 8 7 7 7 7 8 10 10 8 6 5 6 7 6 6 6 6 4 3 3 3 3 3 3 3 3 3 3 3
7 7 8 9 7 5 4 4 6 7 7 5 5 8 9 8 7 9 10 10 11 10 8 7 5 5 6 5 5 5 6 5 4 3 3 3 3 3 3 3 3 3 3
7 7 8 10 8 5 3 4 7 7 6 4 5 8 9 9 8 10 11 10 9 7 6 7 7 6 4 3 3 4 5 4 4 3 3 3 3 2 2 2 3 3 3
8 7 7 8 8 6 4 5 7 7 5 4 5 7 8 9 10 10 9 8 7 6 6 7 9 8 5 4 3 3 4 4 4 4 3 3 1 1 1 1 1 2 2
9 7 6 7 9 7 5 5 7 6 5 5 5 5 5 6 9 10 10 9 8 7 7 7 8 7 5 4 4 4 3 4 4 5 4 3 2 0 0 0 0 1 1
10 8 7 8 8 6 5 6 7 6 4 4 4 3 3 4 6 8 10 10 10 10 10 9 7 5 4 5 6 5 4 4 5 6 5 5 3 1 0 0 0 0 0
10 9 8 8 8 5 4 6 7 6 3 2 2 2 3 6 7 7 8 9 10 11 12 12 9 6 5 5 6 4 4 4 4 5 4 4 4 2 1 0 0 0 0
16 13 10 10 9 7 7 8 8 6 4 2 1 1 3 5 7 7 7 7 8 10 13 14 12 10 7 6 5 3 3 3 2 2 2 3 3 3 2 1 0 0 0
21 17 14 13 12 9 8 8 8 8 7 6 4 4 5 6 8 10 11 10 10 11 13 14 13 12 9 8 5 3 2 1 0 0 1 1 2 3 2 1 0 0 0
20 20 19 18 15 11 8 6 6 9 10 10 10 10 11 11 11 13 16 17 16 14 14 14 14 12 10 8 6 3 2 1 0 0 0 0 1 1 1 1 0 0 0
17 21 22 19 16 13 10 6 5 8 12 14 15 16 17 15 14 16 19 21 20 18 17 16 15 12 10 7 5 3 2 1 0 0 0 0 0 0 0 0 0 0 0
16 18 20 19 17 16 14 10 7 9 13 15 16 17 17 17 15 16 20 23 23 21 19 17 16 14 11 7 5 3 2 1 0 0 0 0 0 0 0 0 0 0 0
16 17 18 19 19 19 18 15 12 12 14 15 15 16 17 18 18 19 21 23 23 23 20 18 18 17 13 10 6 4 3 2 1 0 0 0 0 0 0 0 0 0 0
19 19 20 20 20 21 21 19 17 15 14 14 14 16 19 20 22 23 22 22 22 21 20 19 19 18 15 11 8 5 4 3 2 1 0 0 0 0 0 0 0 0 0
22 22 22 20 19 19 21 21 19 17 15 15 16 18 21 23 24 24 21 20 19 19 19 19 19 19 16 11 8 6 5 4 3 2 1 0 0 0 0 0 0 0 0
23 22 22 23 21 20 22 23 22 20 19 18 19 21 22 22 23 21 18 16 16 18 20 20 19 19 16 12 9 6 6 5 4 3 1 0 0 0 0 0 0 0 0
23 23 23 25 25 22 20 21 23 25 24 22 23 24 22 19 19 17 13 12 14 17 19 19 18 18 17 15 11 8 6 4 3 3 2 1 0 0 0 0 0 0 0
26 27 27 28 26 21 17 18 23 28 29 27 27 26 21 17 15 13 11 10 11 12 13 14 15 16 16 16 14 11 7 4 3 4 3 2 1 0 0 0 0 0 0
34 34 35 35 31 23 15 14 20 27 30 28 27 25 21 17 14 14 13 11 9 8 7 8 10 13 14 13 13 11 7 4 4 4 4 3 2 1 0 0 0 0 0
42 41 41 41 38 28 16 10 13 21 26 26 24 22 21 19 16 15 14 13 12 9 5 4 7 10 10 9 8 7 6 4 3 4 4 3 3 3 1 0 0 0 0
44 41 40 42 41 34 20 9 9 18 23 23 23 21 21 19 16 13 13 15 15 12 7 4 4 6 7 5 4 4 3 2 2 3 5 4 4 3 2 1 1 0 0
42 39 37 40 41 36 23 10 9 18 23 23 23 22 20 19 15 11 12 16 17 14 10 4 2 3 4 4 3 3 2 1 0 3 6 6 4 3 3 2 2 1 0

GEFSMA_con_prob3kmehi_288.txt.gz
EHI
0 0 0 0 0 0 0 0 0 0 0 0 0 0 0 0 0 0 0 1 2 3 5 6 5 5 4 2 1 1 0 0 0 0 0 0 0 0 0 0 0 0 0
0 0 0 0 0 0 0 0 0 0 0 0 0 0 0 0 0 0 0 2 2 3 4 6 8 7 5 3 2 2 1 1 1 1 0 0 0 0 0 0 0 0 0
0 0 0 0 0 0 0 0 0 0 0 0 0 0 0 0 0 0 0 1 2 2 4 7 9 9 6 4 3 4 3 3 3 2 1 1 0 0 0 0 0 0 0
0 0 0 0 0 0 0 1 1 1 2 1 1 0 0 0 1 1 1 0 1 1 3 5 7 8 6 4 4 4 5 5 4 3 3 2 1 0 0 0 0 0 0
0 0 0 0 0 0 0 1 2 2 3 3 2 1 1 1 2 3 2 1 0 0 1 2 4 5 5 4 3 4 4 4 3 3 3 3 2 1 0 0 0 0 0
0 0 0 0 0 0 0 1 1 1 2 2 2 2 1 2 3 4 3 2 1 0 0 0 1 3 3 3 3 3 3 3 3 3 3 2 2 1 0 0 0 0 0
0 0 0 0 0 0 0 0 0 0 1 1 1 1 1 2 2 3 3 3 1 0 0 0 0 1 1 2 2 3 3 3 3 2 1 1 1 1 0 0 0 0 0
1 1 0 0 0 0 0 0 0 0 0 0 0 0 0 1 1 1 2 3 2 1 0 0 0 0 0 1 1 1 3 3 3 2 1 1 0 0 0 0 0 0 0
4 3 2 1 0 0 0 0 0 0 0 0 0 0 0 0 0 0 1 2 2 2 1 0 0 0 0 0 0 1 2 3 3 3 3 2 1 0 0 0 0 0 0
6 6 5 3 2 1 0 0 0 0 0 0 0 0 0 0 0 0 0 1 1 2 2 1 0 0 0 0 0 0 1 2 3 3 2 2 1 1 0 0 0 0 0
5 6 6 6 4 3 1 1 0 0 0 0 0 0 0 0 0 0 0 0 0 1 2 1 0 0 0 0 0 0 0 1 1 1 1 1 1 1 0 0 0 0 0
3 5 6 7 6 4 3 2 1 1 1 1 0 0 0 0 0 0 0 0 1 2 2 1 0 0 0 0 0 1 0 0 0 0 0 0 0 1 1 1 0 0 0
3 4 6 8 8 7 5 3 3 2 2 2 1 1 0 0 0 0 0 0 1 2 2 1 0 0 0 0 0 0 0 0 0 0 0 0 0 0 1 1 0 0 0
3 3 5 7 10 10 7 4 3 3 3 3 3 2 1 1 0 1 1 2 2 2 3 2 1 0 0 0 0 0 0 0 0 0 0 0 0 0 0 0 0 0 0
2 2 3 7 10 11 9 6 4 3 3 3 3 3 3 2 2 3 4 5 4 4 4 3 2 1 0 0 0 0 0 0 0 0 0 0 0 0 0 0 0 0 0
1 1 3 6 8 8 7 6 5 4 3 3 3 3 4 5 6 6 6 7 6 6 6 4 2 1 0 0 0 0 0 0 0 0 0 0 0 0 0 0 0 0 0
1 2 3 6 6 5 4 4 4 3 2 3 4 5 6 8 9 9 9 8 8 7 6 4 2 1 0 0 0 0 0 0 0 0 0 0 0 0 0 0 0 0 0
2 1 2 5 6 4 3 3 3 3 3 3 5 7 9 10 10 10 11 10 9 8 7 4 2 1 0 0 0 0 0 0 0 0 0 0 0 0 0 0 0 0 0
2 1 2 5 6 5 4 4 4 5 5 5 7 8 9 10 10 11 12 12 10 9 8 5 2 0 0 0 0 0 0 0 0 0 0 0 0 0 0 0 0 0 0
3 3 5 7 8 7 6 6 7 7 7 7 8 8 8 9 10 12 13 11 9 8 8 6 3 1 0 0 0 0 0 0 0 0 0 0 0 0 0 0 0 0 0
6 8 9 10 9 8 7 7 8 9 9 8 9 9 8 8 9 11 10 8 7 7 7 5 3 2 1 1 1 0 0 0 0 0 0 0 0 0 0 0 0 0 0
11 12 13 11 9 7 7 7 8 10 11 11 10 10 9 9 8 7 6 5 5 6 6 5 4 3 3 2 2 1 0 0 0 0 0 0 0 0 0 0 0 0 0
16 16 15 12 9 8 7 6 6 8 9 10 10 10 10 9 8 6 4 3 3 4 6 6 5 4 3 3 3 2 1 0 0 0 0 0 0 0 0 0 0 0 0
21 20 18 15 12 11 9 6 4 5 6 7 9 10 9 7 6 5 4 3 4 4 4 5 5 5 4 3 3 3 1 0 0 0 0 0 0 0 0 0 0 0 0
24 24 23 20 16 13 10 6 3 3 4 5 8 10 9 6 4 2 2 3 3 4 3 3 3 4 3 2 3 3 2 1 0 0 0 0 0 0 0 0 0 0 0
25 25 24 22 19 15 12 6 3 4 5 6 9 10 9 6 4 2 1 1 2 3 3 2 2 2 1 1 2 3 2 1 0 0 0 0 0 0 0 0 0 0 0